Radiation Dose at Monitoring Post of Fukushima Daini Nuclear Power Station
Date,Time,MP-1(microSv/h),MP-2(microSv/h),MP-3(microSv/h),MP-4(microSv/h),MP-5(microSv/h),MP-6(microSv/h),MP-7(microSv/h),Wind Direction,Wind Velocity(m/s),Rain
2022/04/17,00:00,0.152,0.138,0.220,0.213,0.219,0.121,0.077,-,CALM,No
2022/04/17,00:10,0.153,0.139,0.220,0.214,0.218,0.120,0.077,south,0.7,No
2022/04/17,00:20,0.152,0.139,0.221,0.214,0.218,0.121,0.076,southeast,0.5,No
2022/04/17,00:30,0.153,0.139,0.220,0.213,0.218,0.120,0.077,-,CALM,No
2022/04/17,00:40,0.152,0.139,0.221,0.213,0.218,0.121,0.077,south,0.7,No
2022/04/17,00:50,0.153,0.139,0.221,0.213,0.218,0.121,0.077,south-southeast,0.8,No
2022/04/17,01:00,0.153,0.138,0.221,0.213,0.218,0.121,0.077,south,0.7,No
2022/04/17,01:10,0.153,0.138,0.220,0.213,0.218,0.121,0.078,south,0.8,No
2022/04/17,01:20,0.153,0.139,0.222,0.213,0.218,0.120,0.078,-,CALM,No
2022/04/17,01:30,0.152,0.139,0.221,0.212,0.218,0.121,0.077,west-southwest,1.0,No
2022/04/17,01:40,0.152,0.138,0.221,0.213,0.218,0.121,0.077,west,1.3,No
2022/04/17,01:50,0.152,0.139,0.221,0.215,0.217,0.121,0.077,west-southwest,1.0,No
2022/04/17,02:00,0.154,0.139,0.221,0.212,0.218,0.120,0.077,west-southwest,1.6,No
2022/04/17,02:10,0.152,0.140,0.222,0.213,0.218,0.120,0.078,west-southwest,1.9,No
2022/04/17,02:20,0.152,0.139,0.220,0.214,0.219,0.121,0.078,west-southwest,2.1,No
2022/04/17,02:30,0.152,0.139,0.221,0.213,0.218,0.120,0.078,southwest,2.7,No
2022/04/17,02:40,0.153,0.139,0.221,0.213,0.218,0.120,0.078,west-southwest,2.2,No
2022/04/17,02:50,0.153,0.139,0.221,0.213,0.218,0.121,0.077,west-southwest,1.6,No
2022/04/17,03:00,0.153,0.139,0.220,0.213,0.218,0.120,0.077,west,1.6,No
2022/04/17,03:10,0.152,0.139,0.219,0.214,0.218,0.120,0.077,west,1.0,No
2022/04/17,03:20,0.153,0.139,0.221,0.213,0.218,0.120,0.077,west,2.1,No
2022/04/17,03:30,0.153,0.138,0.221,0.214,0.217,0.120,0.078,west-northwest,1.3,No
2022/04/17,03:40,0.152,0.139,0.221,0.212,0.218,0.120,0.079,-,CALM,No
2022/04/17,03:50,0.153,0.139,0.220,0.213,0.217,0.120,0.078,-,CALM,No
2022/04/17,04:00,0.153,0.137,0.220,0.213,0.219,0.121,0.077,-,CALM,No
2022/04/17,04:10,0.154,0.139,0.220,0.213,0.218,0.120,0.077,-,CALM,No
2022/04/17,04:20,0.153,0.139,0.221,0.213,0.218,0.120,0.077,-,CALM,No
2022/04/17,04:30,0.153,0.139,0.222,0.212,0.218,0.121,0.077,-,CALM,No
2022/04/17,04:40,0.152,0.138,0.221,0.212,0.218,0.121,0.078,northwest,0.5,No
2022/04/17,04:50,0.153,0.138,0.221,0.213,0.218,0.120,0.077,north,0.5,No
2022/04/17,05:00,0.153,0.139,0.220,0.213,0.218,0.120,0.077,west-northwest,0.5,No
2022/04/17,05:10,0.153,0.139,0.220,0.213,0.219,0.120,0.077,-,CALM,No
2022/04/17,05:20,0.152,0.139,0.220,0.212,0.218,0.120,0.077,-,CALM,No
2022/04/17,05:30,0.153,0.138,0.221,0.212,0.218,0.120,0.077,southwest,0.7,No
2022/04/17,05:40,0.152,0.138,0.219,0.213,0.217,0.120,0.077,-,CALM,No
2022/04/17,05:50,0.154,0.137,0.221,0.211,0.217,0.120,0.077,south-southeast,0.5,No
2022/04/17,06:00,0.152,0.139,0.221,0.212,0.218,0.121,0.077,east-southeast,0.8,No
2022/04/17,06:10,0.153,0.137,0.221,0.213,0.217,0.120,0.077,-,CALM,No
2022/04/17,06:20,0.153,0.138,0.221,0.213,0.218,0.121,0.078,-,CALM,No
2022/04/17,06:30,0.152,0.139,0.219,0.212,0.218,0.120,0.077,-,CALM,No
2022/04/17,06:40,0.153,0.139,0.221,0.213,0.219,0.121,0.076,south-southwest,1.0,No
2022/04/17,06:50,0.152,0.138,0.221,0.213,0.218,0.120,0.077,south-southwest,1.8,No
2022/04/17,07:00,0.153,0.139,0.221,0.213,0.217,0.121,0.077,south-southwest,2.5,No
2022/04/17,07:10,0.153,0.139,0.219,0.212,0.219,0.120,0.077,south-southwest,3.2,No
2022/04/17,07:20,0.153,0.138,0.219,0.212,0.218,0.121,0.078,south-southwest,3.2,No
2022/04/17,07:30,0.153,0.138,0.220,0.213,0.219,0.120,0.077,south-southwest,2.2,No
2022/04/17,07:40,0.153,0.139,0.218,0.212,0.218,0.121,0.077,south-southwest,1.9,No
2022/04/17,07:50,0.153,0.139,0.220,0.212,0.218,0.120,0.077,south,2.5,No
2022/04/17,08:00,0.153,0.138,0.218,0.213,0.217,0.120,0.077,south,2.7,No
2022/04/17,08:10,0.153,0.138,0.220,0.211,0.219,0.120,0.077,south,2.1,No
2022/04/17,08:20,0.153,0.138,0.217,0.213,0.218,0.121,0.077,south-southeast,2.4,No
2022/04/17,08:30,0.152,0.138,0.220,0.211,0.218,0.120,0.076,south-southeast,3.2,No
2022/04/17,08:40,0.153,0.138,0.218,0.213,0.217,0.121,0.077,south-southeast,3.5,No
2022/04/17,08:50,0.151,0.138,0.219,0.211,0.218,0.120,0.076,south-southeast,3.3,No
2022/04/17,09:00,0.153,0.138,0.219,0.213,0.217,0.120,0.077,southeast,3.3,No
2022/04/17,09:10,0.151,0.138,0.220,0.212,0.218,0.119,0.077,south-southeast,3.8,No
2022/04/17,09:20,0.152,0.138,0.220,0.212,0.217,0.120,0.076,south-southeast,3.8,No
2022/04/17,09:30,0.153,0.138,0.219,0.211,0.218,0.120,0.078,-,CALM,No
2022/04/17,09:40,0.152,0.137,0.221,0.213,0.217,0.120,0.076,southeast,4.9,No
2022/04/17,09:50,0.153,0.138,0.219,0.213,0.219,0.121,0.077,south-southeast,5.2,No
2022/04/17,10:00,0.152,0.138,0.220,0.212,0.217,0.121,0.077,south-southeast,5.7,No
2022/04/17,10:10,0.153,0.139,0.219,0.213,0.219,0.120,0.076,southeast,5.5,No
2022/04/17,10:20,0.153,0.138,0.220,0.212,0.217,0.120,0.077,south-southeast,6.1,No
2022/04/17,10:30,0.151,0.138,0.221,0.214,0.219,0.121,0.077,south-southeast,6.0,No
2022/04/17,10:40,0.153,0.139,0.220,0.212,0.217,0.119,0.078,south-southeast,6.6,No
2022/04/17,10:50,0.152,0.138,0.221,0.214,0.217,0.120,0.077,south-southeast,6.4,No
2022/04/17,11:00,0.153,0.138,0.220,0.213,0.218,0.121,0.077,south-southeast,6.0,No
2022/04/17,11:10,0.152,0.139,0.221,0.215,0.217,0.121,0.077,southeast,6.8,No
2022/04/17,11:20,0.152,0.139,0.221,0.213,0.221,0.122,0.077,southeast,7.0,No
2022/04/17,11:30,0.154,0.138,0.221,0.215,0.217,0.121,0.077,south-southeast,6.6,No
2022/04/17,11:40,0.152,0.139,0.223,0.213,0.219,0.121,0.077,south-southeast,7.5,No
2022/04/17,11:50,0.153,0.139,0.220,0.213,0.219,0.121,0.076,south-southeast,6.0,No
2022/04/17,12:00,0.153,0.139,0.221,0.214,0.218,0.121,0.078,south-southeast,7.7,No
2022/04/17,12:10,0.151,0.139,0.222,0.214,0.221,0.120,0.077,south-southeast,7.6,No
2022/04/17,12:20,0.154,0.138,0.222,0.215,0.218,0.121,0.078,south-southeast,7.9,No
2022/04/17,12:30,0.153,0.139,0.221,0.213,0.221,0.121,0.077,southeast,7.9,No
2022/04/17,12:40,0.151,0.138,0.220,0.216,0.220,0.120,0.077,south-southeast,8.4,No
2022/04/17,12:50,0.153,0.140,0.221,0.213,0.218,0.121,0.078,southeast,7.1,No
2022/04/17,13:00,0.152,0.139,0.221,0.215,0.220,0.121,0.077,south-southeast,7.7,No
2022/04/17,13:10,0.151,0.140,0.223,0.214,0.217,0.121,0.077,southeast,8.2,No
2022/04/17,13:20,0.154,0.139,0.221,0.214,0.219,0.120,0.077,south-southeast,11.0,No
2022/04/17,13:30,0.152,0.140,0.221,0.214,0.219,0.121,0.077,southeast,10.9,No
2022/04/17,13:40,0.151,0.139,0.222,0.214,0.218,0.121,0.077,southeast,10.9,No
2022/04/17,13:50,0.153,0.138,0.221,0.216,0.220,0.121,0.078,southeast,9.8,No
2022/04/17,14:00,0.153,0.139,0.223,0.213,0.218,0.121,0.078,south-southeast,10.0,No
2022/04/17,14:10,0.154,0.139,0.220,0.215,0.221,0.121,0.077,south-southeast,9.4,No
2022/04/17,14:20,0.153,0.139,0.222,0.213,0.219,0.121,0.077,south-southeast,11.9,No
2022/04/17,14:30,0.151,0.139,0.221,0.216,0.219,0.121,0.077,south-southeast,9.7,No
2022/04/17,14:40,0.153,0.140,0.223,0.214,0.220,0.122,0.077,south-southeast,12.0,No
2022/04/17,14:50,0.152,0.139,0.222,0.216,0.218,0.121,0.077,south-southeast,11.2,No
2022/04/17,15:00,0.153,0.139,0.222,0.214,0.221,0.121,0.077,south-southeast,9.4,No
2022/04/17,15:10,0.154,0.139,0.223,0.216,0.218,0.122,0.077,southeast,11.0,No
2022/04/17,15:20,0.152,0.139,0.223,0.214,0.220,0.120,0.078,south-southeast,7.7,No
2022/04/17,15:30,0.154,0.139,0.222,0.216,0.220,0.121,0.078,south-southeast,10.0,No
2022/04/17,15:40,0.153,0.139,0.225,0.215,0.220,0.120,0.077,south-southeast,10.1,No
2022/04/17,15:50,0.154,0.139,0.224,0.217,0.221,0.121,0.078,south-southeast,11.7,No
2022/04/17,16:00,0.154,0.140,0.223,0.216,0.218,0.121,0.077,south-southeast,11.2,No
2022/04/17,16:10,0.154,0.140,0.223,0.215,0.220,0.122,0.077,south-southeast,10.2,No
2022/04/17,16:20,0.154,0.140,0.223,0.216,0.219,0.122,0.078,south-southeast,10.6,No
2022/04/17,16:30,0.153,0.140,0.223,0.216,0.221,0.122,0.077,south,11.4,No
2022/04/17,16:40,0.154,0.139,0.223,0.216,0.218,0.122,0.077,south-southeast,10.9,No
2022/04/17,16:50,0.153,0.139,0.222,0.216,0.221,0.122,0.077,south-southeast,11.1,No
2022/04/17,17:00,0.154,0.139,0.224,0.215,0.219,0.121,0.078,south,10.5,No
2022/04/17,17:10,0.154,0.140,0.222,0.216,0.221,0.122,0.077,south,8.9,No
2022/04/17,17:20,0.154,0.139,0.224,0.216,0.221,0.122,0.077,south,6.8,No
2022/04/17,17:30,0.154,0.140,0.223,0.215,0.222,0.122,0.077,south,6.2,No
2022/04/17,17:40,0.153,0.140,0.223,0.216,0.222,0.122,0.077,south,6.6,No
2022/04/17,17:50,0.155,0.139,0.224,0.215,0.221,0.122,0.078,south,5.9,No
2022/04/17,18:00,0.153,0.140,0.223,0.216,0.221,0.122,0.078,south,5.1,No
2022/04/17,18:10,0.154,0.139,0.222,0.216,0.221,0.121,0.077,south,6.6,No
2022/04/17,18:20,0.154,0.140,0.224,0.216,0.222,0.122,0.078,south-southwest,8.0,No
2022/04/17,18:30,0.154,0.140,0.222,0.215,0.221,0.121,0.078,south-southwest,8.1,No
2022/04/17,18:40,0.154,0.140,0.222,0.216,0.220,0.122,0.078,south-southwest,6.9,No
2022/04/17,18:50,0.154,0.139,0.223,0.215,0.220,0.122,0.078,south-southwest,6.6,No
2022/04/17,19:00,0.153,0.140,0.223,0.217,0.220,0.122,0.078,south,6.6,No
2022/04/17,19:10,0.154,0.139,0.222,0.216,0.221,0.121,0.077,south,7.4,No
2022/04/17,19:20,0.153,0.140,0.223,0.216,0.221,0.122,0.077,south,7.0,No
2022/04/17,19:30,0.153,0.140,0.224,0.217,0.221,0.122,0.078,south,6.8,No
2022/04/17,19:40,0.153,0.139,0.224,0.216,0.220,0.122,0.077,south,7.1,No
2022/04/17,19:50,0.153,0.141,0.224,0.215,0.219,0.121,0.077,south,7.6,No
2022/04/17,20:00,0.154,0.139,0.223,0.216,0.221,0.122,0.078,south,7.8,No
2022/04/17,20:10,0.154,0.139,0.223,0.217,0.221,0.121,0.077,south,7.4,No
2022/04/17,20:20,0.153,0.138,0.223,0.215,0.220,0.121,0.078,south,7.0,No
2022/04/17,20:30,0.154,0.140,0.223,0.215,0.221,0.121,0.078,south,7.2,No
2022/04/17,20:40,0.154,0.139,0.224,0.215,0.221,0.121,0.078,south,8.2,No
2022/04/17,20:50,0.154,0.140,0.224,0.216,0.220,0.121,0.078,south,7.2,No
2022/04/17,21:00,0.154,0.139,0.224,0.215,0.220,0.122,0.078,south,8.2,No
2022/04/17,21:10,0.153,0.141,0.223,0.216,0.220,0.122,0.078,south,8.5,No
2022/04/17,21:20,0.154,0.140,0.223,0.215,0.220,0.123,0.078,south,7.5,No
2022/04/17,21:30,0.154,0.139,0.223,0.215,0.220,0.121,0.077,south,7.5,No
2022/04/17,21:40,0.154,0.140,0.224,0.215,0.220,0.122,0.078,south,7.3,No
2022/04/17,21:50,0.154,0.140,0.223,0.216,0.221,0.121,0.078,south,6.8,No
2022/04/17,22:00,0.153,0.139,0.223,0.216,0.221,0.121,0.077,south,6.9,No
2022/04/17,22:10,0.154,0.139,0.224,0.216,0.220,0.122,0.078,south,6.9,No
2022/04/17,22:20,0.154,0.140,0.222,0.215,0.221,0.122,0.078,south,7.1,No
2022/04/17,22:30,0.153,0.140,0.223,0.216,0.219,0.121,0.077,south-southwest,7.2,No
2022/04/17,22:40,0.155,0.140,0.224,0.215,0.221,0.123,0.078,south-southwest,8.4,No
2022/04/17,22:50,0.154,0.140,0.224,0.216,0.220,0.123,0.077,south-southwest,8.1,No
2022/04/17,23:00,0.153,0.140,0.223,0.217,0.221,0.122,0.078,south-southwest,6.6,No
2022/04/17,23:10,0.154,0.139,0.224,0.215,0.221,0.122,0.077,south-southwest,5.2,No
2022/04/17,23:20,0.153,0.140,0.223,0.215,0.219,0.122,0.077,south-southwest,5.2,No
2022/04/17,23:30,0.153,0.140,0.222,0.216,0.220,0.121,0.078,south-southwest,4.8,No
2022/04/17,23:40,0.153,0.140,0.224,0.215,0.221,0.123,0.078,south-southwest,4.4,No
2022/04/17,23:50,0.153,0.140,0.224,0.217,0.220,0.122,0.079,southwest,4.8,No
